Larissa, Greece

6:48 AM EEST on August 21, 2017 (GMT +0300)
Larisa Air Base

Weather History for LGLR - September, 2013

Change the Weather History Date:

Friday, September 27, 2013

  Actual Average Record
Temperature  
Mean Temperature 72 °F -  
Max Temperature 88 °F 73 °F - ()
Min Temperature 55 °F 51 °F - ()
Cooling Degree Days 6    
Growing Degree Days 22 (Base 50)    
Moisture  
Dew Point 46 °F    
Average Humidity 45    
Maximum Humidity 77    
Minimum Humidity 12    
Precipitation  
Precipitation 0.00 in 0.06 in - ()
Sea Level Pressure  
Sea Level Pressure 29.90 in    
Wind  
Wind Speed 1 mph ()    
Max Wind Speed 10 mph    
Max Gust Speed -    
Visibility 6.2 miles    
Events      
T = Trace of Precipitation, MM = Missing Value Source: Averaged Metar Reports

Daily Weather History Graph

Daily Weather History Graph

Search for Another Location

Airport or City:

Trip Planner

Search our weather history database for the weather conditions in past years. The results will help you decide how hot, cold, wet, or windy it might be!

Date:

Astronomy

Sep. 27, 2013 Rise Set
Actual Time 7:22 AM EEST 7:19 PM EEST
Civil Twilight 6:55 AM EEST 7:46 PM EEST
Nautical Twilight 6:24 AM EEST 8:17 PM EEST
Astronomical Twilight 5:52 AM EEST 8:49 PM EEST
Moon 12:03 AM EEST (9/27) 2:43 PM EEST (9/27)
Length of Visible Light 12h 50m
Length of Day
11h 56m
Waning Gibbous, 48% of the Moon is Illuminated
Sep 27
Waning Gibbous
Oct 5
New
Oct 12
First Quarter
Oct 19
Full
Oct 27
Last Quarter

Hourly Weather History & Observations

Time (EEST) Temp. Dew Point Humidity Pressure Visibility Wind Dir Wind Speed Gust Speed Precip Events Conditions
12:50 AM 62.6 °F 53.6 °F 72% 29.86 in - Calm Calm - N/A   Clear
1:50 AM 59.0 °F 51.8 °F 77% 29.89 in - Calm Calm - N/A   Clear
2:50 AM 59.0 °F 51.8 °F 77% 29.89 in - Calm Calm - N/A   Clear
3:00 AM 60 °F 52 °F 67% 29.89 in 6 mi Calm Calm - -  
3:50 AM 55.4 °F 46.4 °F 72% 29.89 in - Calm Calm - N/A   Clear
4:50 AM 55.4 °F 44.6 °F 67% 29.89 in - Calm Calm - N/A   Clear
5:50 AM 55.4 °F 44.6 °F 67% 29.89 in - Calm Calm - N/A   Clear
6:50 AM 55.4 °F 46.4 °F 72% 29.89 in - Calm Calm - N/A   Clear
7:50 AM 55.4 °F 44.6 °F 67% 29.92 in - Calm Calm - N/A   Clear
8:50 AM 62.6 °F 48.2 °F 59% 29.92 in - Calm Calm - N/A   Clear
9:00 AM 62 °F 48 °F 50% 29.93 in 6 mi Calm Calm - -  
9:50 AM 73.4 °F 48.2 °F 41% 29.92 in - South 4.6 mph - N/A   Clear
10:20 AM 75.2 °F 46.4 °F 36% 29.95 in - Calm Calm - N/A   Clear
11:50 AM 78.8 °F 44.6 °F 30% 29.92 in 6.2 mi Calm Calm - N/A   Partly Cloudy
12:50 PM 82.4 °F 42.8 °F 25% 29.92 in 6.2 mi Calm Calm - N/A   Partly Cloudy
1:50 PM 86.0 °F 42.8 °F 22% 29.92 in 6.2 mi Calm Calm - N/A   Partly Cloudy
2:50 PM 87.8 °F 42.8 °F 21% 29.89 in 6.2 mi SSE 4.6 mph - N/A   Partly Cloudy
3:00 PM 88 °F 42 °F 12% 29.88 in 6 mi SSE 4.6 mph - -   Scattered Clouds
3:50 PM 87.8 °F 39.2 °F 18% 29.86 in 6.2 mi Calm Calm - N/A   Partly Cloudy
4:50 PM 87.8 °F 39.2 °F 18% 29.86 in 6.2 mi Calm Calm - N/A   Partly Cloudy
5:50 PM 87.8 °F 41.0 °F 19% 29.86 in 6.2 mi ESE 4.6 mph - N/A   Partly Cloudy
6:50 PM 80.6 °F 44.6 °F 28% 29.86 in 6.2 mi ENE 10.4 mph - N/A   Partly Cloudy
7:50 PM 77.0 °F 42.8 °F 29% 29.86 in 6.2 mi ENE 5.8 mph - N/A   Partly Cloudy
8:50 PM 73.4 °F 42.8 °F 33% 29.89 in 6.2 mi ENE 8.1 mph - N/A   Partly Cloudy
9:00 PM 73 °F 44 °F 24% 29.89 in 6 mi ENE 8.1 mph - -   Scattered Clouds
9:50 PM 69.8 °F 46.4 °F 43% 29.92 in 6.2 mi ENE 5.8 mph - N/A   Partly Cloudy
10:50 PM 66.2 °F 48.2 °F 52% 29.92 in 6.2 mi East 4.6 mph - N/A   Partly Cloudy
11:50 PM 68.0 °F 51.8 °F 56% 29.92 in 6.2 mi Calm Calm - N/A   Partly Cloudy